Glendive, MT

10:46 PM MDT on August 16, 2017 (GMT -0600)
Dawson Community

Weather History for KGDV - February, 2014

Change the Weather History Date:

Wednesday, February 26, 2014

  Actual Average Record
Temperature  
Mean Temperature 10 °F -  
Max Temperature 26 °F 29 °F 60 °F (2016)
Min Temperature -7 °F 10 °F -27 °F (2011)
Degree Days  
Heating Degree Days 56    
Moisture  
Dew Point -1 °F    
Average Humidity 59    
Maximum Humidity 92    
Minimum Humidity 37    
Precipitation  
Precipitation 0.00 in - - ()
Sea Level Pressure  
Sea Level Pressure 30.03 in    
Wind  
Wind Speed 12 mph (WNW)    
Max Wind Speed 23 mph    
Max Gust Speed 29 mph    
Visibility 10 miles    
Events      
Averages and records for this station are not official NWS values.
T = Trace of Precipitation, MM = Missing Value Source: NWS Daily Summary

Daily Weather History Graph

Daily Weather History Graph

Search for Another Location

Airport or City:

Trip Planner

Search our weather history database for the weather conditions in past years. The results will help you decide how hot, cold, wet, or windy it might be!

Date:

Astronomy

Feb. 26, 2014 Rise Set
Actual Time 6:44 AM MST 5:40 PM MST
Civil Twilight 6:13 AM MST 6:11 PM MST
Nautical Twilight 5:38 AM MST 6:46 PM MST
Astronomical Twilight 5:03 AM MST 7:21 PM MST
Moon 4:41 AM MST (2/26) 2:50 PM MST (2/26)
Length of Visible Light 11h 57m
Length of Day
10h 55m
Waning Crescent, 9% of the Moon is Illuminated
Feb 26
Waning Crescent
Mar 1
New
Mar 8
First Quarter
Mar 16
Full
Mar 23
Last Quarter

Hourly Weather History & Observations

Time (MST) Temp. Windchill Dew Point Humidity Pressure Visibility Wind Dir Wind Speed Gust Speed Precip Events Conditions
12:15 AM -2.2 °F -16.8 °F -7.6 °F 78% 30.19 in 10.0 mi SW 8.1 mph - N/A   Clear
12:35 AM -2.2 °F -18.0 °F -5.8 °F 85% 30.19 in 10.0 mi SW 9.2 mph - N/A   Clear
12:55 AM -0.4 °F -16.7 °F -7.6 °F 72% 30.17 in 10.0 mi SSW 10.4 mph - N/A   Clear
1:15 AM -2.2 °F -19.9 °F -7.6 °F 78% 30.16 in 10.0 mi SSW 11.5 mph - N/A   Clear
1:35 AM -2.2 °F -18.0 °F -7.6 °F 78% 30.15 in 10.0 mi SSW 9.2 mph - N/A   Clear
1:55 AM -2.2 °F -19.9 °F -7.6 °F 78% 30.13 in 10.0 mi SSW 11.5 mph - N/A   Clear
2:15 AM -2.2 °F -18.0 °F -9.4 °F 71% 30.13 in 10.0 mi SSW 9.2 mph - N/A   Clear
2:35 AM -0.4 °F -19.2 °F -2.2 °F 92% 30.11 in 10.0 mi SW 13.8 mph - N/A   Clear
2:55 AM -0.4 °F -17.6 °F -9.4 °F 66% 30.11 in 10.0 mi SW 11.5 mph - N/A   Clear
3:15 AM -0.4 °F -15.7 °F -4.0 °F 85% 30.09 in 10.0 mi SSW 9.2 mph - N/A   Clear
3:35 AM -0.4 °F -18.4 °F -9.4 °F 66% 30.09 in 10.0 mi SW 12.7 mph - N/A   Clear
3:55 AM -0.4 °F -17.6 °F -7.6 °F 72% 30.07 in 10.0 mi SSW 11.5 mph - N/A   Clear
4:15 AM -4.0 °F -19.0 °F -11.2 °F 71% 30.06 in 10.0 mi South 8.1 mph - N/A   Clear
4:35 AM -5.8 °F -19.9 °F -9.4 °F 84% 30.06 in 10.0 mi SSE 6.9 mph - N/A   Clear
4:55 AM -4.0 °F -17.8 °F -7.6 °F 85% 30.05 in 10.0 mi SSE 6.9 mph - N/A   Clear
5:15 AM -5.8 °F -21.2 °F -14.8 °F 65% 30.04 in 10.0 mi SSE 8.1 mph - N/A   Clear
5:35 AM -7.6 °F -20.6 °F -11.2 °F 84% 30.03 in 10.0 mi South 5.8 mph - N/A   Clear
5:55 AM -5.8 °F -14.5 °F -7.6 °F 92% 30.03 in 10.0 mi ESE 3.5 mph - N/A   Clear
8:55 AM 17.6 °F 4.3 °F 1.4 °F 49% 30.02 in 10.0 mi West 12.7 mph - N/A   Clear
9:15 AM 19.4 °F 4.1 °F 1.4 °F 46% 30.01 in 10.0 mi West 18.4 mph - N/A   Clear
9:55 AM 21.2 °F 6.4 °F 1.4 °F 42% 30.00 in 10.0 mi West 18.4 mph 23.0 mph N/A   Clear
10:15 AM 21.2 °F 5.6 °F 3.2 °F 46% 30.00 in 10.0 mi West 20.7 mph 26.5 mph N/A   Clear
10:35 AM 23.0 °F 8.0 °F 3.2 °F 43% 30.01 in 10.0 mi West 20.7 mph 26.5 mph N/A   Clear
10:55 AM 23.0 °F 8.0 °F 3.2 °F 43% 30.01 in 10.0 mi West 20.7 mph 26.5 mph N/A   Clear
11:15 AM 24.8 °F 9.6 °F 3.2 °F 40% 30.01 in 10.0 mi WNW 23.0 mph - N/A   Clear
11:35 AM 24.8 °F 10.0 °F 3.2 °F 40% 30.01 in 10.0 mi West 21.9 mph 27.6 mph N/A   Clear
11:55 AM 24.8 °F 10.3 °F 3.2 °F 40% 30.00 in 10.0 mi WNW 20.7 mph 26.5 mph N/A   Clear
12:15 PM 24.8 °F 10.3 °F 3.2 °F 40% 30.00 in 10.0 mi West 20.7 mph 28.8 mph N/A   Clear
12:35 PM 26.6 °F 12.7 °F 3.2 °F 37% 30.00 in 10.0 mi West 20.7 mph 24.2 mph N/A   Clear
12:55 PM 26.6 °F 13.4 °F 3.2 °F 37% 29.99 in 10.0 mi WNW 18.4 mph - N/A   Clear
1:15 PM 26.6 °F 13.1 °F 5.0 °F 40% 29.99 in 10.0 mi West 19.6 mph 24.2 mph N/A   Clear
1:55 PM 26.6 °F 13.4 °F 3.2 °F 37% 29.98 in 10.0 mi WNW 18.4 mph 23.0 mph N/A   Clear
2:15 PM 26.6 °F 14.3 °F 3.2 °F 37% 29.98 in 10.0 mi WNW 16.1 mph 25.3 mph N/A   Clear
2:35 PM 26.6 °F 13.8 °F 3.2 °F 37% 29.98 in 10.0 mi WNW 17.3 mph 23.0 mph N/A   Clear
2:55 PM 26.6 °F 13.8 °F 3.2 °F 37% 29.98 in 10.0 mi WNW 17.3 mph 21.9 mph N/A   Clear
3:15 PM 26.6 °F 13.8 °F 6.8 °F 43% 29.99 in 10.0 mi WNW 17.3 mph - N/A   Clear
3:35 PM 26.6 °F 14.3 °F 6.8 °F 43% 29.99 in 10.0 mi WNW 16.1 mph 19.6 mph N/A   Clear
3:55 PM 26.6 °F 15.7 °F 6.8 °F 43% 29.99 in 10.0 mi WNW 12.7 mph 18.4 mph N/A   Clear
4:15 PM 26.6 °F 15.2 °F 5.0 °F 40% 29.99 in 10.0 mi WNW 13.8 mph - N/A   Clear
4:35 PM 26.6 °F 16.8 °F 6.8 °F 43% 29.98 in 10.0 mi NW 10.4 mph - N/A   Clear
4:55 PM 24.8 °F 14.6 °F 6.8 °F 46% 29.98 in 10.0 mi NW 10.4 mph - N/A   Clear
5:15 PM 23.0 °F 15.8 °F 5.0 °F 46% 29.99 in 10.0 mi NW 5.8 mph - N/A   Clear
5:35 PM 19.4 °F 7.9 °F 3.2 °F 49% 29.98 in 10.0 mi NW 10.4 mph - N/A   Clear
5:55 PM 15.8 °F 5.1 °F 1.4 °F 53% 29.99 in 10.0 mi NW 8.1 mph - N/A   Clear
6:15 PM 14.0 °F 2.0 °F 1.4 °F 57% 29.99 in 10.0 mi North 9.2 mph - N/A   Clear
6:35 PM 15.8 °F 4.2 °F 5.0 °F 62% 30.00 in 10.0 mi NNE 9.2 mph - N/A   Clear
6:55 PM 15.8 °F 2.1 °F 3.2 °F 58% 30.00 in 10.0 mi NNE 12.7 mph - N/A   Clear
7:15 PM 14.0 °F 2.0 °F 1.4 °F 57% 30.01 in 10.0 mi NNE 9.2 mph - N/A   Clear
7:35 PM 14.0 °F 0.5 °F 3.2 °F 62% 30.00 in 10.0 mi NNE 11.5 mph - N/A   Clear
7:55 PM 12.2 °F 0.7 °F -0.4 °F 57% 30.01 in 10.0 mi NNE 8.1 mph - N/A   Clear
8:15 PM 10.4 °F 2.2 °F -0.4 °F 62% 30.02 in 10.0 mi ESE 4.6 mph - N/A   Clear
8:35 PM 8.6 °F -3.7 °F -0.4 °F 67% 30.02 in 10.0 mi East 8.1 mph - N/A   Clear
8:55 PM 8.6 °F -5.5 °F -0.4 °F 67% 30.01 in 10.0 mi NE 10.4 mph - N/A   Clear
9:15 PM 8.6 °F -4.7 °F -2.2 °F 62% 30.01 in 10.0 mi NE 9.2 mph - N/A   Clear
9:35 PM 6.8 °F -8.6 °F -5.8 °F 56% 30.00 in 10.0 mi NNE 11.5 mph - N/A   Clear
9:55 PM 6.8 °F -6.9 °F -4.0 °F 61% 30.00 in 10.0 mi NE 9.2 mph - N/A   Clear
10:15 PM 3.2 °F -11.3 °F -5.8 °F 66% 30.00 in 10.0 mi NE 9.2 mph - N/A   Clear
10:35 PM 5.0 °F -10.0 °F -2.2 °F 72% 29.99 in 10.0 mi NE 10.4 mph - N/A   Clear
10:55 PM 3.2 °F -9.1 °F -7.6 °F 61% 30.00 in 10.0 mi ENE 6.9 mph - N/A   Clear
11:15 PM 3.2 °F -7.8 °F -2.2 °F 78% 30.00 in 10.0 mi East 5.8 mph - N/A   Clear
11:35 PM 1.4 °F -9.9 °F -5.8 °F 72% 30.00 in 10.0 mi East 5.8 mph - N/A   Clear
11:55 PM -0.4 °F -12.0 °F -7.6 °F 72% 30.00 in 10.0 mi ENE 5.8 mph - N/A   Clear